Location: Br?d??el
(45.9833°N, 22.5333°E)
Time: 02:54:21
(UTC+00:00)

Daily predictions for brighter satellites

Satellite Brightness Start Highest point End
(mag) Time Altitude Azimuth Time Altitude Azimuth Time Altitude Azimuth
Cosmos 1908 Rocket 4.4 00:00:57 10° N 00:04:59 48° ENE 00:04:59 48° ENE
SL-16 R/B 2.5 00:05:20 62° SSE 00:06:29 84° ENE 00:12:48 10° NNW
Cosmos 1680 Rocket 4.0 00:03:54 10° NNW 00:09:09 58° ENE 00:10:23 46° ESE
Cosmos 1733 Rocket 4.4 00:06:32 10° NNW 00:09:06 33° NNW 00:09:06 33° NNW
USA 234 3.9 00:10:30 10° ENE 00:16:31 38° SE 00:17:26 36° SSE
Cosmos 1975 4.0 00:17:34 10° N 00:20:10 39° NNW 00:20:10 39° NNW
Nadezhda 3 Rocket 4.3 00:23:24 44° SSE 00:25:19 63° E 00:31:33 10° NNE
Cosmos 1703 Rocket 3.8 00:31:44 64° ENE 00:31:44 64° ENE 00:35:51 10° NNE
AQUA 3.7 00:27:11 10° NNE 00:31:58 77° ESE 00:32:06 76° SE
Cosmos 990 Rocket 3.8 00:33:09 75° SSE 00:33:32 81° ESE 00:38:47 10° NNE
Cosmos 1782 Rocket 4.2 00:29:49 10° N 00:34:14 54° ENE 00:34:59 47° ESE
Resurs 1-4 Rocket 2.0 00:30:40 10° N 00:35:54 66° WNW 00:36:15 64° W
Cosmos 923 Rocket 4.0 00:32:34 10° NNW 00:37:23 62° W 00:37:23 62° W
SJ 16-02 2.5 00:39:48 34° NW 00:39:48 34° NW 00:43:28 10° N
Meteor 1-19 Rocket 4.4 00:39:36 52° W 00:40:01 54° WNW 00:45:25 10° N
CZ-4C R/B 4.4 00:42:37 31° SE 00:44:20 49° ENE 00:48:37 10° N
Okean 1-7 2.9 00:45:54 84° NNE 00:45:54 84° NNE 00:50:02 10° N
Meteor 2-4 Rocket 3.7 00:45:30 56° SSW 00:46:47 80° W 00:52:43 10° N
ARGOS Delta rocket 3.8 00:43:45 10° NNE 00:48:08 62° E 00:48:43 55° SE
Cosmos 1937 Rocket 3.6 00:47:50 52° SSE 00:48:50 66° ESE 00:53:57 10° NNE
Cosmos 2082 Rocket 2.1 00:46:59 10° NNW 00:52:30 59° WSW 00:53:02 56° SW
CZ-2D R/B 2.5 00:48:38 10° N 00:53:55 50° WNW 00:54:48 45° W
SL-19 R/B 4.5 00:49:10 10° N 00:55:16 65° WNW 00:56:50 48° SW
Cosmos 1833 Rocket 3.9 00:51:18 10° NW 00:54:32 25° WNW 00:54:32 25° WNW
Cosmos 1898 Rocket 3.4 00:55:43 60° SW 00:56:41 80° WNW 01:02:01 10° NNE
ARIANE 5 R/B 4.1 00:52:30 10° NE 00:57:06 30° E 01:00:46 14° SSE
Spot 1 4.3 00:56:18 41° SE 00:57:36 66° ENE 01:01:55 10° N
Meteor 1-12 Rocket 4.4 00:51:50 10° N 00:57:53 77° E 01:01:47 23° SSE
SL-4 R/B 2.4 01:01:24 58° S 01:01:24 58° S 01:05:34 10° SE
X-37B 2.2 01:04:57 30° E 01:04:57 30° E 01:06:48 10° E
Cosmos 489 Rocket 4.4 00:59:35 10° NNW 01:05:50 88° ENE 01:12:04 10° SSE
ADEOS II 2.0 01:01:26 10° NNE 01:06:43 77° WNW 01:08:12 48° SSW
Meteor 1-28 Rocket 3.0 01:07:46 87° SW 01:07:48 87° W 01:11:32 10° NNW
Cosmos 372 Rocket 4.5 01:05:51 32° SSE 01:07:54 53° ESE 01:12:53 10° NNE
NOSS 3-4 (A) 3.8 01:05:53 10° NW 01:12:55 80° SW 01:20:46 10° SSE
NOSS 3-4 (C) 3.8 01:05:59 10° NW 01:13:02 81° SW 01:20:52 10° SSE
Cosmos 1943 Rocket 2.5 01:10:37 32° S 01:13:08 60° ESE 01:18:41 10° NNE
CBERS-1 3.9 01:09:29 10° NNE 01:14:38 88° ESE 01:16:35 39° SSW
Cosmos 2112 Rocket 4.3 01:12:15 10° NNW 01:17:19 45° WSW 01:18:04 43° SW
Cosmos 2278 Rocket 3.4 01:15:40 24° W 01:17:34 29° NW 01:22:31 10° N
Helios 1B rocket 4.1 01:16:18 10° NNW 01:19:25 21° WNW 01:19:25 21° WNW
Meteor 1-29 4.5 01:17:03 10° N 01:19:12 24° NW 01:19:12 24° NW
MSX 4.4 01:14:51 10° NNE 01:20:31 55° E 01:24:49 17° S
SL-08 R/B 4.1 01:16:00 10° SSE 01:20:45 53° ENE 01:25:27 10° N
Cosmos 1356 Rocket 3.4 01:17:29 10° N 01:21:39 80° E 01:23:50 28° SSE
CREW DRAGON DEMO-1 DEB 4.4 01:24:02 24° NNW 01:24:21 25° N 01:26:40 10° NE
IRS-1D 3.6 01:20:34 10° N 01:25:42 63° WNW 01:27:41 37° SW
BREEZE-M R/B 4.3 01:22:17 17° WNW 01:25:49 63° N 01:35:20 10° E
ATLAS 2AS CENTAUR R/B 2.8 01:19:53 10° NW 01:27:20 82° NE 01:34:09 10° SE
IDEFIX/ARIANE 42P 2.5 01:22:51 10° NNE 01:28:07 84° ESE 01:31:00 28° S
Sich 1 Rocket 3.5 01:25:11 10° N 01:29:47 81° W 01:32:25 25° S
Cosmos 1066 Rocket 4.3 01:27:02 27° SSW 01:30:22 87° W 01:36:16 10° N
ATLAS 5 CENTAUR R/B 3.9 01:26:15 10° WNW 01:28:14 17° W 01:28:14 17° W
CZ-4B R/B 3.5 01:31:43 10° NNE 01:36:30 73° ESE 01:39:39 22° S
ADEOS Rocket 3.3 01:31:37 16° S 01:36:57 64° W 01:44:06 10° NNW
Meteor 1-15 Rocket 4.1 01:33:42 10° NNW 01:39:17 83° W 01:44:54 10° S
Cosmos 2084 3.9 01:39:57 33° W 01:41:23 47° NW 01:45:32 10° NNE
Cosmos 2369 Rocket 2.7 01:37:50 18° S 01:41:53 55° ESE 01:47:22 10° NE
USA 81 4.0 01:37:19 10° NNW 01:42:33 63° W 01:46:06 20° SSW
CZ-4C R/B 3.5 01:40:18 10° NW 01:47:03 37° WSW 01:54:33 10° S
Gbstr 26 Del rocket 4.4 01:41:32 10° WNW 01:47:13 45° N 01:51:52 10° ENE
Cosmos 1727 Rocket 4.4 01:43:36 10° S 01:49:45 65° E 01:55:59 10° NNE
SL-16 R/B 4.0 01:50:25 17° W 01:50:50 17° W 01:54:50 10° NW
Meteor 1-23 Rocket 4.2 01:48:02 20° SSW 01:52:09 78° WNW 01:57:58 10° N
Cosmos 2297 4.0 01:49:46 26° SW 01:52:51 53° WNW 01:58:27 10° NNE
USA 308 4.4 01:50:18 10° NW 01:54:19 37° NNE 01:58:20 10° E
DELTA 2 R/B (1) 4.1 01:53:56 25° WSW 01:56:31 39° S 02:01:40 10° ESE
Cosmos 1378 4.3 01:57:44 24° W 01:58:19 25° WNW 02:01:25 10° NNW
BREEZE-M DEB (TANK) 1.7 01:58:52 46° W 01:59:18 61° SSW 02:02:25 10° SE
IRS-1C 4.2 01:54:24 10° N 01:59:42 65° WNW 02:03:35 19° SSW
CZ-2C R/B 4.0 01:56:14 10° NNE 01:59:50 39° E 02:03:28 10° S
USA 234 3.3 01:53:18 10° NE 01:59:50 74° NNW 02:04:47 19° WSW
ALOS 4.4 01:56:21 10° NE 02:00:13 25° E 02:04:04 10° SSE
ERS-1 4.4 01:56:10 10° NNE 02:01:10 78° WNW 02:05:12 16° SSW
Okean 2 4.3 01:58:34 10° SSE 02:02:34 49° E 02:06:36 10° NNE
CZ-2C R/B 3.2 02:01:09 10° NNE 02:05:50 51° E 02:10:39 10° S
SL-27 R/B 4.2 02:04:23 10° N 02:07:26 33° ENE 02:10:28 10° SE
CZ-2D R/B 3.4 02:04:31 10° NNE 02:08:41 82° WNW 02:12:24 13° SSW
GP-B 4.0 02:05:19 10° NNE 02:09:40 51° E 02:13:58 10° SSE
Cosmos 1766 3.5 02:06:46 10° NNW 02:10:39 50° W 02:14:27 10° S
Cosmos 1733 3.7 02:11:02 10° NNW 02:14:32 37° W 02:17:07 16° SSW
Resurs 1-4 Rocket 4.2 02:13:15 10° NW 02:14:44 11° NW 02:16:12 10° WNW
Cosmos 1900 4.4 02:10:56 17° SSW 02:14:57 88° SE 02:20:05 10° NE
Cosmos 1300 Rocket 4.4 02:11:13 10° NNW 02:15:10 32° W 02:17:58 16° SW
Cosmos 1656 Rocket 4.0 02:10:25 10° SSW 02:15:45 64° ESE 02:21:10 10° NNE
Cosmos 2151 Rocket 3.9 02:14:30 10° NNW 02:18:51 47° W 02:23:10 10° SSW
Cosmos 44 3.5 02:14:49 10° NW 02:20:19 89° ENE 02:25:36 10° SE
DNEPR-1 R/B 4.2 02:15:07 15° SW 02:20:23 87° NW 02:25:33 10° NE
Cosmos 1048 Rocket 4.0 02:15:24 10° NNW 02:20:46 68° WSW 02:26:02 10° S
Cosmos 1818 3.7 02:16:23 10° NW 02:21:55 80° NE 02:27:22 10° SE
Okean 2 Rocket 3.8 02:18:58 10° NNW 02:22:56 32° W 02:26:36 11° SSW
Meteor 1-22 Rocket 4.3 02:18:37 10° NNW 02:24:11 64° W 02:29:56 10° S
Meteor 2-10 4.2 02:19:38 10° NNW 02:25:22 88° WSW 02:30:54 10° S
Milstar 3 4.4 02:22:39 13° SW 02:27:35 24° S 02:35:51 10° SE
ARIANE 5 R/B 3.2 02:31:24 10° N 02:36:16 39° WNW 02:41:04 10° SW
Cosmos 1470 2.6 02:33:38 10° NNW 02:37:30 74° W 02:41:21 10° S
SL-24 R/B - RUBIN 2 4.0 02:32:30 10° NW 02:37:55 57° WSW 02:42:38 10° SSE
H-2A R/B 4.4 02:34:37 10° SE 02:38:17 29° ENE 02:42:02 10° N
SL-4 R/B 4.0 02:37:10 10° W 02:39:50 15° SW 02:42:26 10° SSW
X-37B 0.6 02:37:13 11° W 02:40:13 74° S 02:43:23 10° E
Cosmos 494 Rocket 4.0 02:35:46 10° NNW 02:40:56 61° WSW 02:46:03 10° S
Okean 1 Rocket 3.3 02:39:56 10° NNW 02:44:18 52° W 02:48:35 10° S
Cosmos 1802 Rocket 4.1 02:38:05 10° N 02:44:23 86° E 02:50:33 10° S
ADEOS II 4.1 02:43:15 10° NNW 02:45:32 13° NW 02:47:48 10° W
USA 305 3.4 02:41:30 10° NW 02:45:47 66° NNE 02:50:02 10° ESE
PAYLOAD A 4.0 02:41:33 10° N 02:46:36 63° WNW 02:51:25 10° SSW
Cosmos 1726 2.1 02:43:46 10° NNW 02:47:29 66° W 02:51:10 10° S
Cosmos 1707 2.7 02:45:09 10° S 02:49:01 84° W 02:52:53 10° N
Spot 4 Rocket 4.5 02:45:54 10° N 02:50:49 46° WNW 02:55:42 10° SW
OE (NEXTSAT) 4.3 02:49:00 10° W 02:52:29 89° N 02:55:57 10° E
Cosmos 1400 Rocket 3.3 02:53:19 10° NNW 02:57:14 42° W 03:01:07 10° SSW
Cosmos 1943 Rocket 3.5 02:52:36 10° WSW 02:57:17 26° NW 03:02:00 10° N
RESURS DK-1 2.7 02:55:00 10° NNW 02:59:10 73° ENE 03:03:19 10° SSE
CREW DRAGON DEMO-1 DEB 4.4 02:56:57 10° NW 02:59:23 29° NNE 03:01:49 10° ENE
